Regional Weather Roundup
Issued by NWS

Home | Current Version | Previous Version | Graphics & Text | Print | Product List | Glossary On
Versions: 1 2 3 4 5 6 7 8 9 10 11 12 13 14 15 16 17 18 19 20 21 22 23 24 25 26 27 28 29 30 31 32 33 34 35 36 37 38 39 40 41 42 43 44 45 46 47 48 49 50
000
ASUS43 KFSD 202302
RWRSD

WEATHER ROUNDUP FOR SOUTH DAKOTA
NATIONAL WEATHER SERVICE SIOUX FALLS SD
500 PM CST SAT JAN 20 2018

NOTE: "FAIR" INDICATES FEW OR NO CLOUDS BELOW 12,000 FEET WITH NO
SIGNIFICANT WEATHER AND/OR OBSTRUCTIONS TO VISIBILITY.


SDZ001>005-009-010-012>017-210000-
NORTHWEST AND NORTH CENTRAL SOUTH DAKOTA

CITY           SKY/WX    TMP DP  RH WIND       PRES   REMARKS
BUFFALO          N/A     34  25  69 NW9       29.85R WCI  27
FAITH            N/A     36  32  85 W3        29.91R
MOBRIDGE       MOCLDY    43  30  60 CALM      29.88R
$$

SDZ012>016-024>037-041>051-057-063-072>074-210000-
SOUTHWEST AND SOUTH CENTRAL SOUTH DAKOTA

CITY           SKY/WX    TMP DP  RH WIND       PRES   REMARKS
RAPID CTY ARPT FLURRIES  36  29  75 N6        29.93R
PIERRE         CLOUDY    38  38 100 SW3       29.91R
CUSTER         LGT SNOW  26  22  84 NE7       29.85R VSB 3/4 WCI  18
ELLSWORTH AFB  CLOUDY    36  30  78 N3        29.92
PHILIP         CLOUDY    37  32  82 VRB3      29.94R
SPEARFISH        N/A     34  28  80 CALM      29.91R
WINNER         FAIR      39  34  82 N7        29.91R
$$

SDZ004>011-016>023-039-040-210000-
NORTHEAST SOUTH DAKOTA

CITY           SKY/WX    TMP DP  RH WIND       PRES   REMARKS
ABERDEEN       MOCLDY    42  30  62 NW5       29.90R
WATERTOWN      CLOUDY    39  30  70 NW6       29.88R
BROOKINGS      CLOUDY    41  29  62 N5        29.90R
SISSETON         N/A     42  29  59 W5        29.89R
$$

SDZ017-020-022-023-036>040-048>070-210000-
SOUTHEAST SOUTH DAKOTA

CITY           SKY/WX    TMP DP  RH WIND       PRES   REMARKS
SIOUX FALLS    CLOUDY    39  34  82 N5        29.89S
HURON          CLOUDY    41  33  73 SE3       29.90R
CHAMBERLAIN    CLOUDY    41  37  84 NW7       29.91S
MITCHELL       CLOUDY    39  33  79 N5        29.91R
YANKTON        CLOUDY    39  32  76 N8        29.88S
$$

ABBREVIATIONS USED IN REMARKS
   TC - TEMPERATURE IN CELSIUS
  WCI - WIND CHILL INDEX
   HX - HEAT INDEX
  VSB - VISIBILITY




USA.gov is the U.S. government's official web portal to all federal, state and local government web resources and services.